QPF
0.02 0.02 0.02 0.02 0.01 0.01 0.01 0.01 0.01 0.03 0.03 0.03 0.04 0.05 0.07 0.07 0.08 0.08 0.08 0.08 0.10 0.09 0.07 0.07 0.05 0.06 0.06 0.06 0.08 0.08 0.08 0.09 0.06 0.03 0.02 0.03 0.03 0.04 0.05 0.03 0.02 0.02 0.02
0.03 0.03 0.02 0.03 0.03 0.02 0.01 0.01 0.01 0.03 0.03 0.03 0.04 0.04 0.05 0.06 0.08 0.09 0.10 0.10 0.10 0.08 0.07 0.06 0.05 0.05 0.05 0.06 0.07 0.07 0.08 0.09 0.07 0.05 0.05 0.05 0.04 0.04 0.04 0.03 0.02 0.02 0.03
0.06 0.05 0.04 0.04 0.05 0.04 0.03 0.03 0.03 0.04 0.05 0.04 0.04 0.03 0.04 0.06 0.08 0.10 0.11 0.11 0.12 0.10 0.08 0.08 0.08 0.10 0.09 0.07 0.06 0.05 0.05 0.05 0.06 0.06 0.06 0.05 0.04 0.04 0.04 0.04 0.04 0.04 0.03
0.06 0.06 0.06 0.06 0.05 0.05 0.06 0.07 0.07 0.08 0.11 0.11 0.09 0.06 0.04 0.04 0.06 0.08 0.11 0.14 0.17 0.15 0.12 0.13 0.14 0.12 0.09 0.07 0.06 0.04 0.05 0.04 0.05 0.05 0.05 0.05 0.06 0.06 0.06 0.05 0.06 0.07 0.09
0.05 0.06 0.07 0.09 0.09 0.08 0.08 0.08 0.09 0.10 0.11 0.11 0.10 0.07 0.05 0.04 0.05 0.07 0.09 0.10 0.13 0.15 0.14 0.13 0.10 0.09 0.07 0.06 0.04 0.05 0.06 0.05 0.05 0.05 0.04 0.04 0.06 0.07 0.06 0.05 0.05 0.05 0.07
0.04 0.06 0.06 0.08 0.09 0.10 0.10 0.10 0.11 0.11 0.12 0.11 0.08 0.05 0.05 0.06 0.07 0.07 0.07 0.07 0.08 0.09 0.07 0.07 0.06 0.05 0.04 0.05 0.05 0.07 0.07 0.05 0.05 0.05 0.04 0.04 0.03 0.04 0.06 0.07 0.06 0.06 0.05
0.06 0.07 0.09 0.10 0.11 0.10 0.10 0.09 0.08 0.09 0.09 0.09 0.08 0.07 0.07 0.06 0.06 0.04 0.04 0.03 0.03 0.04 0.04 0.04 0.03 0.03 0.04 0.04 0.05 0.05 0.05 0.05 0.05 0.05 0.04 0.03 0.04 0.04 0.05 0.05 0.04 0.05 0.05
0.08 0.08 0.08 0.08 0.08 0.09 0.10 0.11 0.09 0.07 0.07 0.09 0.09 0.09 0.08 0.06 0.05 0.04 0.04 0.03 0.03 0.03 0.04 0.04 0.04 0.04 0.03 0.03 0.04 0.04 0.05 0.06 0.06 0.06 0.06 0.05 0.05 0.05 0.06 0.05 0.04 0.04 0.03
0.05 0.04 0.04 0.05 0.06 0.07 0.08 0.08 0.09 0.09 0.09 0.08 0.08 0.09 0.09 0.08 0.07 0.05 0.04 0.04 0.04 0.04 0.04 0.04 0.04 0.03 0.03 0.04 0.05 0.04 0.05 0.05 0.06 0.06 0.05 0.05 0.05 0.06 0.07 0.07 0.06 0.05 0.04
0.05 0.05 0.05 0.06 0.06 0.06 0.07 0.07 0.08 0.08 0.09 0.11 0.10 0.11 0.09 0.08 0.08 0.07 0.06 0.05 0.04 0.03 0.04 0.04 0.04 0.04 0.05 0.06 0.06 0.05 0.04 0.04 0.05 0.05 0.04 0.04 0.04 0.04 0.05 0.05 0.05 0.05 0.04
0.04 0.04 0.06 0.07 0.08 0.07 0.06 0.06 0.05 0.06 0.06 0.07 0.07 0.07 0.07 0.07 0.07 0.05 0.05 0.05 0.04 0.05 0.05 0.06 0.07 0.08 0.07 0.07 0.06 0.05 0.05 0.08 0.07 0.07 0.06 0.06 0.06 0.07 0.07 0.08 0.09 0.09 0.08
0.04 0.05 0.06 0.08 0.08 0.08 0.08 0.08 0.07 0.05 0.05 0.05 0.06 0.07 0.07 0.06 0.05 0.04 0.05 0.06 0.06 0.06 0.06 0.07 0.07 0.09 0.09 0.09 0.08 0.08 0.08 0.07 0.06 0.07 0.07 0.08 0.09 0.11 0.12 0.14 0.14 0.14 0.13
0.05 0.06 0.07 0.08 0.08 0.08 0.08 0.08 0.07 0.07 0.07 0.06 0.06 0.06 0.06 0.05 0.04 0.04 0.06 0.07 0.06 0.06 0.06 0.07 0.07 0.08 0.07 0.05 0.06 0.07 0.09 0.09 0.09 0.09 0.09 0.10 0.10 0.11 0.11 0.10 0.10 0.09 0.08
0.05 0.04 0.05 0.07 0.08 0.09 0.09 0.10 0.10 0.09 0.09 0.07 0.06 0.06 0.05 0.05 0.04 0.03 0.05 0.06 0.06 0.06 0.06 0.07 0.07 0.06 0.06 0.05 0.05 0.05 0.07 0.08 0.08 0.07 0.06 0.06 0.06 0.05 0.05 0.05 0.05 0.05 0.04
0.04 0.04 0.05 0.06 0.08 0.09 0.10 0.10 0.09 0.09 0.08 0.06 0.05 0.04 0.04 0.03 0.04 0.04 0.04 0.04 0.05 0.05 0.06 0.06 0.06 0.06 0.06 0.05 0.05 0.05 0.05 0.06 0.06 0.05 0.04 0.04 0.05 0.05 0.05 0.06 0.07 0.07 0.06
0.05 0.05 0.06 0.06 0.07 0.09 0.11 0.10 0.09 0.08 0.08 0.07 0.05 0.04 0.04 0.03 0.03 0.04 0.05 0.05 0.05 0.06 0.07 0.08 0.08 0.08 0.08 0.08 0.08 0.09 0.09 0.07 0.05 0.04 0.04 0.04 0.05 0.05 0.05 0.06 0.08 0.08 0.07
0.05 0.06 0.07 0.06 0.07 0.08 0.10 0.12 0.12 0.12 0.12 0.11 0.09 0.06 0.05 0.03 0.03 0.03 0.04 0.05 0.06 0.06 0.05 0.06 0.08 0.08 0.08 0.09 0.08 0.06 0.06 0.05 0.05 0.05 0.05 0.05 0.04 0.03 0.04 0.05 0.06 0.07 0.07
0.05 0.06 0.06 0.05 0.05 0.05 0.06 0.08 0.08 0.07 0.08 0.08 0.07 0.06 0.06 0.06 0.05 0.06 0.05 0.05 0.06 0.05 0.04 0.04 0.06 0.07 0.07 0.07 0.07 0.06 0.05 0.05 0.04 0.04 0.04 0.03 0.02 0.02 0.02 0.02 0.04 0.05 0.06
0.05 0.05 0.04 0.04 0.04 0.04 0.04 0.07 0.09 0.07 0.07 0.07 0.07 0.07 0.08 0.07 0.08 0.10 0.09 0.08 0.07 0.07 0.05 0.04 0.04 0.05 0.06 0.06 0.05 0.06 0.05 0.05 0.04 0.03 0.02 0.02 0.02 0.01 0.01 0.02 0.02 0.04 0.05
0.04 0.04 0.04 0.03 0.03 0.03 0.04 0.05 0.07 0.07 0.07 0.09 0.09 0.08 0.08 0.07 0.06 0.07 0.08 0.08 0.10 0.08 0.06 0.05 0.05 0.05 0.05 0.04 0.04 0.04 0.03 0.03 0.02 0.02 0.02 0.01 0.02 0.02 0.02 0.02 0.02 0.02 0.03
0.04 0.05 0.05 0.05 0.05 0.05 0.05 0.07 0.07 0.07 0.07 0.07 0.07 0.08 0.08 0.07 0.06 0.06 0.07 0.06 0.05 0.05 0.05 0.05 0.05 0.05 0.04 0.04 0.03 0.03 0.03 0.02 0.02 0.02 0.02 0.02 0.02 0.02 0.02 0.02 0.02 0.02 0.02
0.05 0.05 0.06 0.07 0.06 0.05 0.06 0.06 0.05 0.04 0.04 0.04 0.04 0.04 0.05 0.05 0.05 0.05 0.04 0.03 0.04 0.04 0.05 0.05 0.05 0.04 0.03 0.03 0.03 0.03 0.03 0.03 0.03 0.03 0.03 0.03 0.03 0.03 0.03 0.03 0.03 0.03 0.03
0.08 0.07 0.06 0.06 0.05 0.05 0.04 0.03 0.03 0.03 0.03 0.04 0.04 0.03 0.02 0.03 0.03 0.03 0.03 0.03 0.04 0.04 0.03 0.04 0.05 0.05 0.04 0.04 0.04 0.04 0.04 0.04 0.04 0.04 0.04 0.05 0.05 0.05 0.04 0.04 0.03 0.03 0.04
0.05 0.04 0.04 0.04 0.05 0.04 0.03 0.03 0.02 0.02 0.02 0.03 0.03 0.03 0.02 0.03 0.02 0.02 0.02 0.02 0.02 0.02 0.02 0.03 0.04 0.05 0.06 0.06 0.05 0.04 0.05 0.05 0.06 0.06 0.06 0.05 0.06 0.06 0.07 0.06 0.05 0.04 0.04
0.03 0.03 0.03 0.04 0.06 0.05 0.04 0.02 0.01 0.01 0.01 0.01 0.02 0.02 0.03 0.03 0.02 0.02 0.01 0.01 0.02 0.02 0.02 0.02 0.02 0.03 0.04 0.06 0.07 0.07 0.06 0.06 0.06 0.06 0.06 0.06 0.06 0.07 0.09 0.10 0.12 0.11 0.10
0.03 0.03 0.03 0.03 0.03 0.02 0.02 0.01 0.01 0.01 0.01 0.01 0.01 0.01 0.01 0.02 0.03 0.03 0.02 0.01 0.01 0.01 0.02 0.02 0.01 0.01 0.02 0.03 0.03 0.04 0.04 0.04 0.04 0.04 0.04 0.04 0.05 0.06 0.09 0.12 0.13 0.12 0.12
MSLP
1014.37 1014.46 1014.56 1014.63 1014.65 1014.60 1014.51 1014.37 1014.20 1014.03 1013.88 1013.76 1013.65 1013.56 1013.46 1013.37 1013.26 1013.14 1013.04 1012.96 1012.92 1012.94 1013.01 1013.12 1013.25 1013.37 1013.45 1013.46 1013.39 1013.23 1012.98 1012.64 1012.25 1011.81 1011.34 1010.86 1010.37 1009.88 1009.39 1008.93 1008.50 1008.12 1007.84
1014.67 1014.74 1014.81 1014.86 1014.86 1014.80 1014.70 1014.56 1014.40 1014.24 1014.10 1013.97 1013.87 1013.77 1013.68 1013.58 1013.47 1013.36 1013.25 1013.17 1013.12 1013.11 1013.14 1013.21 1013.28 1013.35 1013.38 1013.36 1013.27 1013.10 1012.87 1012.57 1012.22 1011.83 1011.41 1010.96 1010.48 1009.98 1009.46 1008.93 1008.41 1007.93 1007.53
1014.93 1015.00 1015.05 1015.07 1015.04 1014.96 1014.84 1014.70 1014.54 1014.39 1014.25 1014.14 1014.05 1013.97 1013.89 1013.81 1013.72 1013.62 1013.53 1013.46 1013.41 1013.39 1013.40 1013.43 1013.46 1013.48 1013.47 1013.41 1013.30 1013.13 1012.91 1012.65 1012.35 1012.01 1011.64 1011.22 1010.77 1010.27 1009.73 1009.16 1008.58 1008.01 1007.49
1015.09 1015.17 1015.21 1015.21 1015.15 1015.05 1014.92 1014.76 1014.61 1014.46 1014.34 1014.25 1014.17 1014.11 1014.06 1013.99 1013.93 1013.85 1013.78 1013.72 1013.68 1013.67 1013.66 1013.67 1013.68 1013.67 1013.63 1013.55 1013.43 1013.26 1013.06 1012.82 1012.56 1012.27 1011.94 1011.58 1011.16 1010.68 1010.14 1009.55 1008.92 1008.28 1007.66
1015.13 1015.23 1015.27 1015.26 1015.19 1015.07 1014.92 1014.76 1014.61 1014.47 1014.36 1014.28 1014.23 1014.18 1014.14 1014.10 1014.05 1013.99 1013.94 1013.89 1013.86 1013.85 1013.84 1013.85 1013.84 1013.82 1013.77 1013.67 1013.55 1013.39 1013.20 1012.99 1012.76 1012.51 1012.23 1011.91 1011.54 1011.10 1010.58 1009.99 1009.34 1008.65 1007.95
1015.05 1015.17 1015.23 1015.21 1015.14 1015.01 1014.86 1014.70 1014.54 1014.42 1014.32 1014.26 1014.21 1014.18 1014.14 1014.10 1014.05 1014.00 1013.95 1013.91 1013.89 1013.87 1013.88 1013.88 1013.88 1013.85 1013.80 1013.71 1013.59 1013.44 1013.27 1013.08 1012.88 1012.66 1012.42 1012.14 1011.81 1011.40 1010.92 1010.36 1009.71 1009.01 1008.27
1014.86 1015.01 1015.09 1015.08 1015.01 1014.89 1014.74 1014.58 1014.44 1014.33 1014.24 1014.18 1014.14 1014.10 1014.06 1014.01 1013.95 1013.89 1013.84 1013.79 1013.76 1013.75 1013.76 1013.77 1013.77 1013.75 1013.70 1013.62 1013.51 1013.37 1013.20 1013.03 1012.84 1012.64 1012.43 1012.19 1011.89 1011.53 1011.10 1010.57 1009.95 1009.26 1008.51
1014.59 1014.77 1014.87 1014.88 1014.82 1014.71 1014.58 1014.44 1014.31 1014.21 1014.13 1014.07 1014.02 1013.98 1013.92 1013.86 1013.78 1013.70 1013.63 1013.57 1013.53 1013.52 1013.52 1013.54 1013.54 1013.53 1013.49 1013.42 1013.31 1013.17 1013.01 1012.83 1012.65 1012.46 1012.25 1012.03 1011.76 1011.44 1011.05 1010.57 1010.00 1009.34 1008.61
1014.28 1014.48 1014.60 1014.63 1014.59 1014.50 1014.38 1014.26 1014.15 1014.06 1013.99 1013.93 1013.88 1013.82 1013.75 1013.66 1013.57 1013.47 1013.38 1013.32 1013.27 1013.25 1013.26 1013.27 1013.28 1013.27 1013.23 1013.15 1013.03 1012.88 1012.71 1012.52 1012.33 1012.13 1011.92 1011.70 1011.45 1011.16 1010.80 1010.36 1009.84 1009.22 1008.52
1013.94 1014.16 1014.29 1014.34 1014.32 1014.25 1014.16 1014.05 1013.96 1013.88 1013.81 1013.76 1013.70 1013.63 1013.55 1013.46 1013.36 1013.26 1013.17 1013.10 1013.05 1013.03 1013.03 1013.04 1013.04 1013.02 1012.97 1012.88 1012.75 1012.58 1012.38 1012.17 1011.95 1011.73 1011.51 1011.28 1011.03 1010.74 1010.40 1009.99 1009.51 1008.93 1008.26
1013.59 1013.82 1013.96 1014.02 1014.02 1013.97 1013.89 1013.80 1013.72 1013.64 1013.59 1013.53 1013.48 1013.42 1013.34 1013.26 1013.17 1013.08 1013.01 1012.95 1012.92 1012.90 1012.90 1012.91 1012.89 1012.86 1012.78 1012.66 1012.50 1012.30 1012.07 1011.82 1011.57 1011.32 1011.07 1010.82 1010.56 1010.27 1009.93 1009.53 1009.06 1008.50 1007.85
1013.25 1013.46 1013.60 1013.67 1013.67 1013.63 1013.56 1013.49 1013.41 1013.35 1013.29 1013.24 1013.20 1013.15 1013.10 1013.05 1012.99 1012.95 1012.91 1012.88 1012.87 1012.87 1012.88 1012.87 1012.84 1012.77 1012.66 1012.50 1012.30 1012.06 1011.80 1011.52 1011.23 1010.95 1010.68 1010.40 1010.12 1009.81 1009.46 1009.05 1008.57 1008.01 1007.35
1012.90 1013.09 1013.22 1013.28 1013.28 1013.24 1013.18 1013.11 1013.03 1012.97 1012.92 1012.89 1012.86 1012.84 1012.83 1012.82 1012.81 1012.82 1012.84 1012.86 1012.88 1012.90 1012.91 1012.89 1012.83 1012.73 1012.57 1012.37 1012.13 1011.85 1011.56 1011.25 1010.95 1010.65 1010.35 1010.06 1009.75 1009.42 1009.05 1008.61 1008.10 1007.51 1006.82
1012.55 1012.72 1012.82 1012.87 1012.86 1012.82 1012.75 1012.67 1012.60 1012.53 1012.49 1012.46 1012.45 1012.46 1012.49 1012.54 1012.60 1012.67 1012.75 1012.82 1012.88 1012.92 1012.92 1012.88 1012.80 1012.66 1012.46 1012.22 1011.94 1011.63 1011.31 1010.99 1010.68 1010.38 1010.08 1009.78 1009.47 1009.12 1008.72 1008.25 1007.69 1007.05 1006.30
1012.20 1012.33 1012.41 1012.44 1012.42 1012.36 1012.29 1012.20 1012.12 1012.05 1012.01 1011.99 1012.00 1012.04 1012.11 1012.20 1012.32 1012.45 1012.58 1012.69 1012.78 1012.83 1012.83 1012.77 1012.65 1012.47 1012.23 1011.95 1011.65 1011.33 1011.01 1010.70 1010.40 1010.12 1009.84 1009.56 1009.25 1008.89 1008.47 1007.97 1007.37 1006.66 1005.85
1011.86 1011.95 1012.00 1012.01 1011.98 1011.92 1011.84 1011.74 1011.65 1011.58 1011.52 1011.50 1011.52 1011.58 1011.68 1011.81 1011.97 1012.13 1012.29 1012.43 1012.53 1012.57 1012.55 1012.47 1012.31 1012.09 1011.83 1011.53 1011.21 1010.90 1010.60 1010.32 1010.07 1009.83 1009.60 1009.35 1009.06 1008.71 1008.28 1007.76 1007.12 1006.37 1005.50
1011.52 1011.59 1011.62 1011.62 1011.58 1011.51 1011.42 1011.33 1011.23 1011.14 1011.08 1011.05 1011.07 1011.13 1011.23 1011.37 1011.54 1011.71 1011.87 1012.00 1012.09 1012.11 1012.06 1011.94 1011.75 1011.50 1011.22 1010.92 1010.61 1010.33 1010.07 1009.85 1009.66 1009.49 1009.31 1009.12 1008.87 1008.55 1008.14 1007.61 1006.95 1006.17 1005.25
1011.18 1011.24 1011.26 1011.25 1011.22 1011.16 1011.07 1010.97 1010.87 1010.77 1010.70 1010.66 1010.66 1010.70 1010.78 1010.90 1011.04 1011.19 1011.32 1011.42 1011.46 1011.45 1011.36 1011.20 1010.99 1010.73 1010.44 1010.15 1009.88 1009.65 1009.46 1009.31 1009.19 1009.09 1008.99 1008.86 1008.67 1008.39 1008.00 1007.49 1006.84 1006.05 1005.11
1010.84 1010.89 1010.92 1010.92 1010.89 1010.84 1010.77 1010.67 1010.57 1010.47 1010.39 1010.32 1010.30 1010.30 1010.34 1010.42 1010.50 1010.59 1010.67 1010.71 1010.69 1010.63 1010.49 1010.31 1010.08 1009.82 1009.55 1009.30 1009.09 1008.92 1008.80 1008.73 1008.70 1008.68 1008.66 1008.59 1008.45 1008.22 1007.87 1007.38 1006.76 1005.99 1005.07
1010.46 1010.52 1010.56 1010.57 1010.57 1010.53 1010.48 1010.40 1010.30 1010.20 1010.11 1010.02 1009.96 1009.92 1009.90 1009.91 1009.92 1009.94 1009.94 1009.90 1009.83 1009.71 1009.54 1009.33 1009.10 1008.87 1008.64 1008.45 1008.31 1008.22 1008.19 1008.20 1008.25 1008.30 1008.34 1008.32 1008.23 1008.04 1007.73 1007.28 1006.70 1005.97 1005.10
1010.01 1010.08 1010.14 1010.18 1010.19 1010.19 1010.15 1010.09 1010.01 1009.91 1009.81 1009.70 1009.60 1009.51 1009.43 1009.37 1009.31 1009.24 1009.16 1009.05 1008.92 1008.75 1008.56 1008.36 1008.15 1007.96 1007.80 1007.69 1007.63 1007.63 1007.68 1007.77 1007.89 1008.00 1008.08 1008.10 1008.04 1007.88 1007.59 1007.19 1006.64 1005.97 1005.17
1009.47 1009.55 1009.63 1009.69 1009.73 1009.74 1009.73 1009.70 1009.63 1009.54 1009.43 1009.31 1009.18 1009.04 1008.91 1008.78 1008.64 1008.50 1008.35 1008.19 1008.01 1007.83 1007.64 1007.46 1007.30 1007.18 1007.10 1007.07 1007.11 1007.20 1007.33 1007.49 1007.65 1007.80 1007.90 1007.94 1007.89 1007.73 1007.47 1007.09 1006.59 1005.98 1005.26
1008.83 1008.92 1009.00 1009.08 1009.14 1009.18 1009.19 1009.18 1009.13 1009.05 1008.94 1008.81 1008.66 1008.49 1008.31 1008.13 1007.94 1007.74 1007.54 1007.35 1007.15 1006.97 1006.81 1006.68 1006.59 1006.55 1006.57 1006.65 1006.78 1006.95 1007.15 1007.36 1007.56 1007.72 1007.82 1007.85 1007.78 1007.62 1007.36 1006.99 1006.53 1005.98 1005.34
1008.11 1008.21 1008.30 1008.39 1008.46 1008.52 1008.55 1008.55 1008.52 1008.45 1008.35 1008.21 1008.05 1007.87 1007.66 1007.45 1007.22 1006.99 1006.77 1006.56 1006.38 1006.23 1006.11 1006.05 1006.05 1006.11 1006.22 1006.40 1006.62 1006.87 1007.13 1007.38 1007.59 1007.75 1007.83 1007.83 1007.73 1007.55 1007.27 1006.91 1006.47 1005.97 1005.41
1007.40 1007.50 1007.59 1007.68 1007.76 1007.83 1007.87 1007.88 1007.86 1007.80 1007.71 1007.58 1007.42 1007.22 1007.00 1006.77 1006.53 1006.30 1006.08 1005.88 1005.72 1005.61 1005.56 1005.58 1005.66 1005.81 1006.03 1006.30 1006.60 1006.91 1007.21 1007.48 1007.70 1007.84 1007.90 1007.86 1007.73 1007.51 1007.21 1006.84 1006.42 1005.96 1005.46
1006.80 1006.89 1006.98 1007.07 1007.15 1007.21 1007.26 1007.28 1007.26 1007.21 1007.13 1007.00 1006.84 1006.64 1006.42 1006.19 1005.95 1005.72 1005.51 1005.33 1005.21 1005.15 1005.16 1005.25 1005.41 1005.64 1005.94 1006.28 1006.64 1007.00 1007.34 1007.62 1007.83 1007.96 1007.98 1007.91 1007.75 1007.50 1007.18 1006.81 1006.40 1005.96 1005.51
Thickness
5792 5791 5789 5786 5784 5782 5779 5777 5776 5775 5774 5772 5771 5769 5768 5767 5766 5764 5762 5760 5757 5755 5754 5752 5751 5750 5748 5747 5745 5743 5741 5738 5733 5735 5737 5739 5738 5738 5737 5736 5736 5735 5734
5789 5786 5784 5783 5780 5777 5776 5775 5775 5773 5772 5770 5768 5766 5764 5763 5762 5760 5758 5756 5753 5751 5750 5749 5748 5747 5745 5743 5741 5739 5738 5736 5732 5729 5730 5731 5731 5732 5731 5730 5730 5730 5729
5785 5782 5779 5777 5775 5773 5772 5772 5771 5770 5768 5766 5764 5762 5760 5758 5757 5756 5754 5752 5751 5749 5747 5745 5743 5741 5739 5738 5736 5734 5733 5732 5730 5726 5725 5725 5725 5726 5724 5724 5724 5723 5723
5780 5776 5773 5772 5771 5770 5769 5768 5767 5766 5763 5761 5759 5757 5756 5755 5753 5752 5750 5748 5747 5745 5743 5741 5739 5737 5735 5733 5731 5729 5728 5725 5723 5720 5719 5718 5718 5719 5717 5714 5714 5715 5715
5772 5769 5768 5767 5765 5764 5763 5762 5762 5760 5759 5756 5754 5752 5752 5751 5749 5747 5745 5743 5741 5739 5738 5736 5735 5734 5732 5730 5728 5724 5722 5718 5715 5713 5712 5711 5710 5709 5708 5708 5706 5706 5706
5766 5763 5762 5760 5758 5756 5755 5754 5754 5753 5752 5750 5748 5746 5745 5745 5744 5743 5740 5737 5735 5733 5731 5730 5729 5727 5726 5724 5723 5721 5718 5714 5710 5707 5705 5704 5704 5703 5703 5702 5699 5696 5695
5758 5756 5755 5752 5750 5749 5749 5747 5746 5745 5744 5742 5741 5740 5738 5738 5737 5736 5734 5731 5728 5726 5724 5722 5721 5721 5719 5717 5715 5714 5712 5711 5709 5705 5701 5700 5699 5698 5696 5694 5693 5690 5690
5749 5747 5746 5745 5743 5741 5740 5739 5738 5737 5736 5734 5733 5731 5730 5730 5729 5728 5726 5723 5721 5719 5717 5715 5713 5712 5711 5708 5706 5704 5702 5702 5701 5699 5698 5697 5695 5694 5691 5689 5687 5684 5684
5738 5738 5737 5736 5735 5733 5731 5730 5730 5729 5727 5726 5725 5723 5721 5721 5720 5720 5718 5715 5712 5711 5710 5709 5707 5704 5704 5701 5697 5694 5692 5692 5693 5692 5691 5690 5689 5687 5684 5680 5676 5673 5671
5728 5730 5729 5727 5726 5724 5723 5722 5721 5719 5717 5717 5715 5714 5713 5712 5711 5710 5709 5706 5703 5701 5700 5700 5699 5697 5695 5692 5689 5686 5683 5683 5682 5682 5681 5681 5679 5678 5676 5673 5670 5665 5662
5721 5720 5719 5718 5717 5716 5714 5713 5711 5709 5707 5706 5705 5705 5704 5704 5703 5702 5700 5697 5695 5692 5691 5689 5689 5688 5685 5683 5681 5679 5677 5675 5673 5671 5670 5669 5668 5667 5665 5663 5661 5659 5654
5711 5709 5708 5708 5708 5707 5704 5702 5700 5698 5697 5696 5695 5694 5694 5694 5694 5692 5691 5689 5688 5685 5683 5681 5680 5678 5676 5674 5672 5670 5669 5666 5663 5661 5659 5657 5656 5655 5654 5653 5651 5650 5648
5700 5698 5697 5697 5696 5696 5693 5691 5688 5687 5686 5685 5684 5683 5683 5684 5684 5683 5682 5680 5679 5676 5674 5673 5670 5667 5665 5664 5663 5661 5659 5656 5653 5650 5648 5647 5646 5645 5644 5642 5641 5639 5637
5689 5688 5687 5686 5685 5684 5683 5682 5680 5678 5676 5676 5674 5673 5673 5672 5672 5672 5671 5669 5668 5666 5664 5661 5659 5657 5656 5654 5653 5651 5649 5646 5643 5640 5638 5637 5636 5634 5632 5631 5628 5626 5624
5679 5678 5676 5675 5674 5672 5671 5670 5670 5669 5669 5669 5668 5666 5664 5663 5664 5663 5662 5660 5658 5655 5652 5649 5646 5644 5642 5641 5640 5638 5637 5634 5632 5630 5628 5625 5623 5622 5620 5619 5616 5613 5611
5669 5667 5666 5664 5663 5661 5659 5658 5659 5660 5659 5659 5659 5658 5657 5657 5656 5653 5651 5650 5647 5644 5641 5638 5635 5633 5631 5630 5628 5626 5624 5623 5621 5619 5616 5614 5612 5610 5608 5607 5605 5603 5600
5660 5658 5656 5655 5653 5651 5650 5649 5647 5647 5647 5647 5647 5647 5647 5646 5644 5642 5640 5637 5635 5633 5629 5627 5624 5622 5621 5620 5618 5615 5613 5612 5610 5608 5606 5603 5601 5599 5597 5595 5594 5592 5590
5651 5649 5647 5645 5644 5642 5641 5639 5639 5637 5635 5634 5635 5635 5635 5634 5633 5631 5628 5625 5622 5620 5619 5616 5614 5612 5610 5608 5607 5605 5603 5601 5599 5597 5595 5593 5591 5588 5586 5584 5583 5581 5580
5642 5640 5638 5636 5635 5633 5631 5630 5628 5627 5625 5624 5623 5623 5623 5622 5620 5618 5616 5614 5613 5610 5608 5606 5604 5603 5600 5599 5597 5595 5593 5591 5588 5586 5585 5583 5581 5579 5576 5574 5573 5572 5570
5633 5633 5631 5628 5626 5623 5621 5620 5618 5617 5616 5615 5613 5612 5611 5610 5608 5606 5604 5603 5602 5600 5599 5596 5595 5594 5592 5590 5588 5586 5583 5581 5579 5577 5576 5574 5572 5570 5568 5566 5565 5563 5562
5625 5623 5623 5620 5617 5615 5613 5612 5610 5608 5606 5605 5604 5603 5602 5600 5599 5597 5595 5594 5593 5592 5590 5588 5587 5585 5584 5582 5580 5577 5575 5573 5571 5569 5568 5566 5564 5562 5561 5559 5557 5556 5555
5615 5613 5612 5611 5609 5607 5605 5604 5602 5600 5599 5597 5595 5594 5593 5592 5589 5587 5586 5585 5584 5584 5583 5581 5579 5578 5576 5574 5572 5569 5568 5566 5563 5561 5559 5558 5556 5554 5552 5551 5550 5549 5548
5607 5605 5603 5602 5602 5600 5598 5596 5595 5593 5591 5590 5588 5586 5585 5582 5580 5579 5578 5577 5576 5575 5574 5572 5570 5568 5567 5565 5564 5562 5559 5557 5555 5554 5552 5550 5548 5546 5545 5544 5543 5542 5541
5599 5598 5596 5595 5594 5592 5591 5589 5587 5585 5583 5582 5580 5578 5576 5574 5572 5571 5569 5568 5567 5566 5564 5562 5561 5559 5558 5556 5555 5553 5551 5550 5548 5546 5545 5542 5540 5538 5537 5536 5536 5536 5535
5592 5591 5590 5588 5587 5585 5583 5581 5579 5577 5576 5574 5572 5570 5567 5566 5564 5562 5560 5559 5558 5556 5555 5553 5551 5549 5548 5548 5546 5545 5543 5541 5540 5538 5536 5535 5532 5530 5529 5528 5528 5528 5527
5586 5585 5583 5581 5580 5578 5576 5574 5572 5569 5567 5565 5563 5561 5559 5557 5555 5553 5552 5550 5548 5547 5545 5543 5541 5540 5539 5537 5536 5536 5535 5533 5532 5530 5528 5526 5524 5522 5521 5520 5520 5520 5520